Terminal Aerodrome Forecast
Issued by NWS Dodge City, KS

Home | Current Version | Previous Version | Text Only | Print | Product List | Glossary On
Versions: 1 2 3 4 5 6 7 8 9 10 11 12 13 14 15 16 17 18 19 20 21 22 23 24 25 26 27 28 29 30 31 32 33 34 35 36 37 38 39 40 41 42 43
000
FTUS43 KDDC 211010 AAC
TAFDDC
TAF AMD
KDDC 211010Z 2110/2206 19009KT 3/4SM BR OVC002
     FM211400 19009KT 4SM BR OVC007
     FM212000 19012KT P6SM SCT012
     FM212300 19013G18KT P6SM SKC=

USA.gov is the U.S. government's official web portal to all federal, state and local government web resources and services.